Theta_e
304 304 306 306 302 295 298 298 296 297 298 297 293 298 298 296 289 289 292 295 296 300 301 305 307 317 318 321 320 322 322 324 325 326 327 328 329 328 329 331 331 332 334 336 337 337 336 337 337 338 339 340 341 342 342 342 343 344 345 346 346 346 347
304 306 305 306 305 302 297 295 297 301 301 298 295 290 288 287 286 286 292 294 292 292 293 303 304 310 315 319 320 321 321 324 324 326 327 328 329 329 329 331 332 333 334 336 337 337 337 337 338 338 340 340 344 344 344 345 344 344 344 345 346 346 346
303 305 305 303 304 306 301 300 305 299 295 293 290 292 286 286 285 286 288 293 296 294 296 300 302 304 308 316 318 319 321 323 324 326 327 329 329 329 329 330 331 332 333 335 337 337 338 338 339 340 343 343 344 344 344 344 344 345 345 346 347 347 347
303 302 300 296 298 304 305 305 302 303 297 293 291 293 290 290 286 287 285 290 293 298 298 301 303 303 307 315 318 319 320 323 324 325 327 328 329 329 329 329 331 332 333 335 337 337 337 338 339 341 343 343 343 344 345 344 345 346 346 347 348 347 347
302 297 300 297 298 298 298 300 298 298 299 303 297 297 293 291 286 285 286 286 289 296 302 305 306 307 308 315 320 320 320 323 324 325 328 329 330 329 329 330 330 332 333 334 337 338 339 340 342 343 342 342 343 344 344 345 344 345 345 347 348 348 348
295 299 302 303 303 300 300 298 299 298 297 295 292 293 296 293 292 287 286 288 291 298 312 309 309 312 313 314 321 321 321 321 322 324 327 329 330 330 330 330 331 332 333 334 336 338 339 340 341 341 342 343 343 343 343 344 345 345 345 346 347 348 349
299 300 304 305 305 305 303 301 298 301 298 298 292 287 291 293 292 296 291 292 293 303 309 314 316 317 316 314 321 321 321 321 321 322 325 328 331 331 331 331 332 332 334 334 336 338 338 339 341 342 343 342 342 343 344 345 344 344 345 346 347 348 349
299 303 305 307 309 307 303 303 303 301 299 301 300 299 296 297 294 292 292 292 293 302 312 318 319 320 323 322 320 321 323 324 324 324 324 326 328 330 332 334 334 333 334 335 336 336 337 339 341 343 343 343 343 343 344 344 344 345 346 347 348 349 348
290 295 299 300 304 305 302 301 302 303 303 303 303 303 298 297 293 294 289 288 292 306 312 317 319 321 323 325 326 324 323 324 325 325 326 327 328 329 331 332 333 334 334 334 336 336 337 338 341 343 344 344 343 344 344 344 345 346 346 348 348 349 349
284 286 286 289 294 297 302 304 302 304 308 310 308 303 297 290 294 296 292 290 297 301 310 317 318 318 318 322 324 326 324 323 324 325 326 327 329 329 330 330 332 332 333 335 336 336 337 338 340 341 343 345 345 345 345 345 345 346 347 349 349 349 349
288 291 294 299 305 300 298 299 301 303 307 312 308 302 297 298 295 297 295 299 303 304 313 316 317 318 317 318 323 323 323 324 325 324 325 326 328 330 331 331 331 332 332 333 335 336 337 338 339 340 342 344 345 345 345 346 347 347 348 349 349 349 350
296 298 300 302 308 301 301 300 300 304 307 310 309 306 304 307 299 291 297 304 304 304 314 316 317 318 319 319 320 323 323 324 325 325 329 334 329 330 331 332 331 331 331 333 334 335 336 337 339 340 341 343 345 346 345 347 348 349 350 350 350 350 350
300 300 301 302 302 302 302 304 306 307 308 310 307 307 311 308 297 295 304 306 303 309 315 317 318 319 319 320 320 323 324 325 326 326 326 327 328 329 331 331 332 332 331 332 333 334 336 337 337 339 341 342 344 346 347 348 349 349 351 350 350 350 350
298 299 300 302 300 300 307 308 308 309 311 310 311 310 312 311 308 308 310 307 309 314 317 319 320 321 322 322 324 325 324 324 326 324 325 326 327 329 329 331 333 335 335 334 334 335 336 336 337 339 341 343 344 345 346 348 349 350 350 350 349 349 349
297 299 302 302 304 306 306 306 309 309 309 311 312 312 312 315 311 312 311 309 309 317 321 321 322 321 322 326 324 323 322 325 326 324 324 326 327 327 329 331 333 336 338 337 336 336 337 338 338 340 343 344 345 346 347 348 348 350 351 349 349 349 349
293 297 300 301 302 307 305 305 306 306 307 307 311 310 314 312 309 311 312 311 311 318 321 321 321 321 320 320 323 323 324 325 326 324 324 325 325 326 327 330 335 339 340 338 337 337 338 339 340 341 343 344 345 345 347 347 348 350 350 349 348 348 349
290 295 299 300 299 299 299 301 304 306 307 310 313 315 317 315 315 310 309 311 317 319 322 319 319 320 320 320 322 323 324 324 325 325 325 325 326 326 326 331 336 337 338 338 338 339 340 341 341 342 343 344 344 345 346 346 347 348 347 347 347 347 347
289 294 297 299 294 289 292 306 310 309 308 309 310 311 314 316 317 314 317 317 319 320 320 318 318 318 319 320 322 327 326 326 326 326 326 326 326 327 327 328 331 335 338 338 338 338 339 341 342 342 344 343 342 344 344 344 345 344 344 344 344 344 345
289 292 295 294 287 289 301 310 312 315 314 312 313 313 315 316 317 317 317 317 318 319 320 320 321 321 322 324 324 324 326 326 326 327 328 327 328 328 327 328 330 332 335 338 338 339 339 341 341 341 341 342 341 341 342 342 342 341 342 342 342 344 345
291 291 288 285 286 298 307 312 312 315 315 314 312 310 314 315 316 317 315 317 318 319 320 321 323 322 322 324 325 325 326 327 326 326 327 329 330 329 329 329 328 331 333 336 338 339 341 342 341 341 340 341 341 340 341 340 340 340 341 341 342 344 344
289 288 289 292 297 299 302 304 307 310 306 309 307 302 308 316 317 317 317 318 318 319 320 321 322 322 322 320 321 324 326 327 328 328 328 330 331 331 330 331 330 331 333 335 338 340 340 340 341 340 340 341 340 339 339 340 340 340 341 342 343 345 345
292 291 288 287 288 289 294 304 314 318 316 316 315 310 307 318 318 319 318 317 318 319 320 321 322 321 317 313 316 322 325 328 328 329 330 332 333 333 332 332 332 333 335 337 341 340 339 340 340 340 340 340 339 339 340 341 341 341 342 343 345 346 345
293 290 287 285 286 291 300 306 312 315 318 317 316 309 303 317 317 319 319 318 319 319 319 321 322 316 311 311 316 322 326 327 329 328 330 332 334 334 333 332 333 335 336 339 342 342 342 340 341 342 342 342 341 340 341 342 343 342 343 345 346 346 346
293 287 288 288 291 295 305 311 313 315 319 317 311 296 299 313 318 319 319 318 319 319 320 322 320 315 311 313 319 325 327 328 329 330 329 330 333 334 335 335 336 336 339 343 344 344 343 342 344 345 345 344 344 343 344 344 343 343 344 346 348 348 347
294 296 288 291 296 305 309 311 314 316 317 312 298 293 306 317 319 320 320 319 320 322 321 322 317 321 321 322 325 327 328 328 329 331 332 333 334 335 335 336 340 339 342 347 345 345 346 347 347 347 346 345 344 345 345 344 343 345 347 348 347 347 347
294 293 291 290 293 301 309 314 316 317 311 298 296 311 318 319 319 320 320 319 321 322 322 322 322 324 327 328 328 328 328 328 329 330 331 335 336 337 339 341 341 341 346 348 348 348 349 349 349 348 347 345 345 345 344 343 344 346 346 347 347 346 346
293 290 288 287 285 298 313 313 312 315 305 306 314 317 319 320 320 320 320 321 321 322 321 323 324 325 326 327 328 328 329 329 329 330 330 333 335 336 338 339 342 345 347 347 347 348 349 349 349 348 347 345 345 344 343 343 345 346 346 346 346 345 346
290 286 288 288 297 306 312 312 305 311 315 318 319 318 316 320 320 320 320 320 322 323 322 323 324 324 325 327 329 329 330 330 331 331 332 334 336 337 339 342 345 348 347 345 343 344 345 346 346 347 347 345 345 343 343 346 346 347 346 345 345 346 347
297 293 294 301 305 309 312 314 314 316 318 320 321 321 320 319 320 322 320 320 322 324 323 323 324 324 326 326 328 328 329 330 331 331 334 336 336 336 338 340 342 343 342 340 340 339 339 341 341 342 345 346 345 343 345 347 347 346 346 346 345 345 346
303 305 307 311 311 312 313 315 318 318 320 321 322 322 319 320 321 321 320 322 323 324 325 323 324 324 325 326 328 329 329 330 331 333 334 335 336 336 337 338 340 339 339 339 338 336 336 338 338 339 341 345 344 344 347 348 347 346 347 346 346 345 346
295 293 305 307 309 311 314 314 316 319 322 321 322 320 320 320 321 322 323 324 324 324 325 324 324 324 326 327 328 330 329 330 330 330 332 334 335 336 336 337 337 336 338 338 337 335 334 336 338 339 339 340 343 346 348 348 348 347 347 347 347 346 346
296 296 303 308 311 312 313 314 314 315 316 318 319 320 321 321 323 324 324 326 325 325 324 325 325 325 327 327 328 329 330 330 330 329 330 331 333 332 334 336 337 337 336 336 335 335 334 335 337 338 339 340 343 348 350 350 348 347 347 347 345 344 344
302 304 305 306 310 311 314 316 315 316 316 317 318 320 321 322 322 322 323 325 325 325 325 326 326 326 328 329 330 330 331 331 330 329 331 332 331 331 332 334 336 336 336 336 335 335 335 335 336 337 338 341 345 348 349 348 347 347 348 348 345 343 342
295 298 303 306 303 303 309 312 314 315 317 317 318 319 319 320 320 321 322 323 325 326 327 326 327 327 328 330 331 331 331 330 329 330 330 331 332 331 332 332 333 335 337 335 335 335 334 335 336 337 338 340 344 348 348 347 347 348 347 344 341 339 340
297 303 306 308 309 309 310 312 315 316 317 318 318 318 319 320 321 322 322 323 324 324 326 328 328 328 329 330 332 331 330 329 330 330 330 330 331 331 332 332 331 332 333 336 335 334 334 336 337 337 338 339 340 342 343 342 341 340 341 341 339 337 340
307 309 310 310 308 309 312 315 316 317 318 318 318 319 320 320 321 323 324 324 324 324 326 327 329 329 329 330 331 330 329 329 329 330 331 333 333 332 332 330 331 332 333 334 333 334 334 336 336 336 337 337 337 338 338 337 336 334 333 334 336 338 337
308 311 312 313 313 314 315 316 316 318 320 321 319 318 319 320 323 325 325 326 327 326 326 326 328 329 328 329 330 330 330 329 330 331 331 332 334 332 332 332 331 332 332 332 332 332 333 335 336 337 336 336 337 337 337 338 337 335 334 334 335 337 340
Wind_Speed
2 3 2 2 2 1 2 2 0 3 5 5 0 1 1 1 3 5 1 6 6 7 6 3 4 4 4 5 3 1 1 3 6 9 10 11 11 10 10 11 11 11 10 11 12 12 11 11 11 12 12 13 12 7 14 13 9 11 12 12 8 6 6
2 0 0 2 1 2 3 1 4 1 1 3 2 1 2 3 2 6 1 1 6 5 5 5 7 5 5 5 4 1 4 6 8 7 8 10 11 11 11 12 12 14 13 12 11 11 12 13 13 13 10 8 17 17 15 8 8 13 11 9 8 9 10
8 5 2 3 2 1 3 4 1 2 1 1 3 1 2 2 4 4 3 1 4 3 6 4 6 4 7 5 4 1 3 5 5 4 5 6 6 6 8 10 10 10 11 13 13 13 13 13 13 10 16 18 15 16 17 19 18 16 15 12 11 10 10
4 3 3 1 5 7 1 1 4 1 6 3 1 1 1 3 3 2 6 2 3 5 5 3 5 5 5 6 2 5 3 3 3 4 5 8 9 9 9 10 11 12 12 12 13 13 13 12 9 14 16 15 17 16 16 15 15 14 12 10 9 10 9
2 1 1 2 2 2 5 5 2 3 2 2 2 0 1 3 3 2 1 3 4 7 5 3 5 6 5 4 4 2 3 1 3 4 6 6 7 8 9 10 10 11 11 11 11 12 12 7 11 14 15 17 17 16 16 16 16 14 13 13 11 11 9
2 5 2 1 2 2 1 0 2 6 4 4 2 6 2 1 1 3 2 4 7 9 1 4 6 8 5 4 2 0 2 2 3 4 4 6 7 6 7 8 9 10 10 10 10 9 7 11 13 14 13 13 13 14 14 14 14 14 14 12 11 11 9
5 4 9 5 4 3 2 4 4 2 6 5 5 1 4 3 2 2 2 1 5 2 3 4 6 7 7 5 4 3 2 2 3 3 4 5 6 8 8 8 8 8 9 9 10 10 11 14 14 14 13 14 14 14 13 13 14 15 14 14 12 10 9
5 4 4 5 3 1 1 0 1 1 5 6 6 5 3 1 4 2 2 0 5 2 3 4 4 3 5 6 2 3 1 1 2 4 5 5 4 4 3 3 4 5 5 5 5 7 9 9 10 13 13 12 11 11 13 13 15 15 13 10 9 9 9
5 5 5 5 5 3 1 3 4 2 5 5 3 2 1 1 5 5 3 3 2 1 4 4 6 9 10 8 8 6 0 1 1 2 3 3 3 3 3 4 3 3 4 6 7 9 10 11 10 11 11 11 12 12 12 13 14 14 12 9 8 9 9
0 1 1 2 3 3 4 2 5 2 6 8 6 2 1 2 2 2 2 4 7 7 9 17 16 15 15 9 6 5 5 3 1 2 3 3 3 4 4 4 5 6 7 5 5 6 7 9 11 10 10 10 11 11 13 14 13 11 10 8 8 8 8
5 5 3 4 0 2 2 4 4 3 3 6 7 5 2 1 3 4 4 1 9 12 17 16 20 13 11 12 8 8 7 6 7 2 3 2 2 2 4 6 5 4 4 8 9 9 10 10 10 10 10 10 10 11 11 11 10 10 8 8 7 7 7
4 3 3 3 1 3 3 3 4 3 2 6 8 4 3 1 1 7 2 2 4 7 12 15 17 16 13 10 8 6 6 5 6 7 1 3 2 2 1 3 5 8 9 8 9 10 9 9 9 8 8 9 11 11 12 9 5 4 3 4 4 5 6
4 4 5 6 4 3 3 2 4 7 2 9 5 0 2 2 3 6 6 4 1 3 9 12 10 10 12 13 12 4 1 2 5 7 6 4 2 1 0 1 3 4 7 9 9 10 10 9 9 7 7 6 5 5 5 6 6 7 7 7 6 6 5
4 4 3 5 3 3 1 4 7 6 3 8 6 7 6 7 4 3 7 2 3 1 12 11 13 13 10 9 5 2 6 4 5 5 5 4 3 3 5 6 5 4 5 4 3 3 5 8 8 8 8 8 8 9 8 8 8 7 8 9 9 9 9
3 3 4 3 5 0 2 4 9 11 5 2 7 5 5 8 4 6 7 2 2 1 8 11 10 7 9 5 5 4 3 5 4 3 3 4 5 6 5 5 6 6 5 3 1 1 0 1 4 5 6 7 7 8 7 8 8 7 8 8 8 7 6
4 2 5 5 4 2 2 7 12 12 10 6 8 6 5 5 7 8 7 6 6 9 11 10 6 10 11 9 4 4 4 3 3 4 5 7 8 6 5 4 5 5 6 5 4 3 4 5 5 6 6 6 7 7 7 7 6 6 5 5 6 6 5
2 3 3 6 3 3 3 4 4 6 5 5 7 4 6 8 7 4 6 5 6 11 11 13 14 13 11 9 8 6 5 4 4 4 3 3 3 4 5 4 4 4 4 4 4 4 4 5 5 4 5 6 6 6 6 4 5 6 6 5 4 4 4
3 5 6 2 2 1 3 1 0 1 5 7 4 5 6 9 8 3 4 5 9 10 10 11 13 13 11 7 6 4 3 5 5 5 3 2 2 2 2 3 2 1 3 5 5 5 5 5 5 5 5 6 5 5 5 5 5 4 5 4 4 4 3
3 5 5 2 1 5 1 1 2 3 6 10 6 10 9 10 11 10 8 9 11 11 9 8 7 8 8 5 2 7 5 4 5 4 3 4 4 3 3 2 2 1 3 5 6 6 5 6 6 7 6 6 6 6 5 6 5 6 5 5 4 4 3
1 1 2 1 2 3 2 1 8 10 4 8 7 2 7 9 10 10 8 10 11 11 13 12 10 7 6 4 2 5 5 7 7 7 7 7 5 5 5 5 4 4 5 6 6 6 5 6 6 6 7 7 7 6 5 5 5 5 5 5 5 4 4
1 1 0 4 3 3 6 3 6 7 4 8 8 4 4 5 8 10 9 10 11 12 11 11 12 8 2 2 3 2 9 8 6 6 7 8 8 6 4 6 6 4 3 5 5 5 4 4 5 5 6 7 7 7 6 5 5 6 6 6 5 4 5
2 2 1 3 2 1 2 2 2 2 0 4 6 4 4 3 8 8 11 11 12 12 12 12 14 6 2 5 6 7 10 9 10 9 7 7 7 5 2 3 4 3 3 3 5 6 6 5 5 5 5 6 7 7 7 7 7 6 6 6 5 5 5
2 2 1 2 2 0 2 3 4 7 2 4 6 3 3 1 10 8 10 11 11 11 10 13 12 8 5 5 7 7 12 14 9 10 9 8 6 4 0 3 4 2 3 3 3 4 6 8 7 7 7 6 6 7 6 6 5 5 5 5 5 5 5
1 3 1 1 2 1 2 5 6 8 5 3 2 4 1 6 11 10 9 11 11 11 10 10 8 5 6 8 10 14 15 12 10 8 10 10 7 3 4 4 4 2 0 3 4 4 5 7 7 8 7 7 7 7 6 5 4 4 3 3 3 3 4
2 2 0 1 2 0 1 6 9 5 2 3 1 5 2 7 9 9 9 10 10 10 12 8 9 5 4 9 12 15 14 13 12 9 8 8 2 2 4 3 3 1 1 2 4 5 5 7 7 6 7 8 7 6 6 6 4 3 3 3 4 4 3
2 0 0 1 2 1 1 2 4 2 5 1 3 1 5 8 11 9 8 10 7 6 9 8 8 10 11 12 12 13 12 10 9 9 8 4 4 3 4 5 4 1 1 3 4 4 6 7 7 7 6 7 7 7 7 7 5 4 5 5 4 4 5
2 4 1 1 0 1 4 7 3 3 1 2 1 4 6 6 9 10 10 7 9 5 7 8 10 13 13 11 11 12 13 11 11 11 8 2 5 4 6 6 2 3 4 5 5 5 5 6 6 7 8 9 9 8 7 6 6 6 5 5 5 5 5
1 1 1 1 3 4 2 3 1 2 2 3 3 3 7 7 5 6 6 7 8 8 7 8 10 11 12 12 11 14 13 12 10 9 2 5 5 2 4 7 6 6 5 5 4 5 4 4 4 5 7 8 7 9 8 7 7 6 6 6 6 6 5
1 1 3 6 4 5 4 2 4 4 7 4 6 5 7 8 7 4 5 8 9 8 8 8 7 10 9 10 10 9 10 11 11 7 3 7 8 7 8 9 9 8 7 5 3 1 1 4 4 4 5 8 8 7 7 8 8 7 7 7 6 6 6
4 3 6 3 4 4 6 4 5 5 5 4 4 5 6 7 8 7 7 8 9 9 7 8 9 6 8 11 12 12 9 8 8 5 1 5 7 7 7 8 10 11 9 7 6 4 1 2 3 3 3 6 11 8 8 8 8 8 8 7 6 6 6
3 1 1 2 5 7 6 6 6 5 5 5 3 5 5 8 9 9 8 7 8 8 8 7 9 11 8 10 10 8 7 8 7 6 5 2 2 6 8 8 10 11 11 10 9 7 6 4 5 6 6 4 6 8 9 7 7 8 7 7 6 6 5
2 4 4 6 7 6 6 5 4 6 7 6 5 5 7 8 9 9 10 8 8 6 7 7 8 10 9 9 9 9 9 7 7 5 6 6 6 7 4 3 6 9 11 11 9 9 7 7 7 5 3 2 4 7 9 7 6 7 7 7 6 5 5
6 3 3 4 7 1 4 4 5 6 5 6 9 9 8 8 8 9 9 6 8 7 8 7 7 10 10 8 8 9 8 6 5 5 5 5 4 2 2 4 3 6 7 7 8 8 6 4 1 2 1 3 4 9 9 8 6 7 7 7 6 6 5
3 1 4 3 4 5 8 9 10 10 9 6 8 9 8 7 8 8 10 11 6 6 6 7 7 10 9 8 7 8 6 3 1 2 5 5 5 6 8 10 13 9 2 6 6 6 4 2 2 2 3 3 4 8 10 9 8 7 7 6 6 5 4
4 6 6 3 4 7 9 10 10 9 9 7 8 9 9 9 8 7 7 10 11 8 6 5 7 9 8 10 8 7 5 3 2 4 7 6 4 3 7 10 11 13 9 6 5 2 2 3 4 2 5 2 6 7 10 11 11 10 8 6 5 4 3
6 7 7 3 2 5 8 9 9 10 8 6 9 9 8 8 9 7 7 7 9 10 9 9 6 7 8 9 8 8 5 3 1 4 5 3 3 2 2 8 10 3 6 7 6 5 4 5 5 3 5 4 6 7 9 11 11 10 9 7 5 3 2
5 3 3 3 5 8 9 9 9 9 9 6 7 9 10 10 9 6 7 8 6 7 8 10 10 6 6 8 6 8 5 2 2 3 5 5 4 6 4 2 5 9 6 5 5 4 5 5 4 3 2 5 0 6 6 9 11 11 10 9 5 1 0
Wind_Direction
332 309 314 337 116 81 273 53 221 205 176 126 84 22 344 93 45 259 196 317 295 298 326 299 334 348 334 355 12 92 99 143 154 172 175 177 177 175 174 174 177 179 183 185 182 182 183 183 181 186 186 184 183 130 80 90 152 188 196 199 191 180 189
294 68 175 247 71 132 85 67 244 288 104 120 126 256 338 54 177 267 28 224 303 17 291 306 339 356 330 350 340 333 150 156 178 181 172 175 179 180 177 173 174 178 177 179 182 183 182 185 186 187 174 98 71 79 106 137 198 218 219 204 195 197 198
275 343 36 331 320 118 140 183 164 109 285 258 326 90 322 318 289 290 314 295 261 192 255 317 300 322 320 317 324 312 181 183 185 158 162 159 155 154 169 171 174 179 179 178 179 184 186 187 186 154 95 100 126 145 161 177 194 206 207 205 203 208 209
304 344 62 324 299 326 14 19 19 5 92 138 86 232 175 117 271 40 291 23 257 221 224 207 260 271 278 279 295 253 238 177 165 161 160 161 165 169 174 176 180 180 181 183 179 179 182 184 161 116 135 149 157 163 172 185 196 202 206 204 201 207 208
32 27 336 182 223 297 332 21 27 358 18 221 114 117 164 234 197 188 230 330 285 265 223 200 264 286 281 244 265 297 280 229 160 174 165 171 171 171 177 177 179 181 182 183 184 182 181 146 117 141 157 167 171 173 177 182 192 198 203 205 200 210 201
353 252 242 235 261 180 164 174 159 146 86 45 56 293 358 68 181 235 130 268 263 272 174 249 297 301 306 256 220 161 279 220 172 170 168 166 169 177 177 179 177 181 183 184 183 180 139 127 147 158 168 170 175 179 178 182 191 196 201 203 202 209 205
259 254 282 272 256 236 183 133 245 160 117 113 103 115 285 2 270 109 167 127 274 243 303 322 312 308 309 272 165 152 219 211 189 173 164 173 171 171 178 178 183 181 180 179 176 166 154 159 164 164 166 175 181 180 174 183 188 200 203 203 198 197 199
299 309 284 315 19 34 31 345 322 61 128 153 159 190 199 254 303 316 286 209 253 292 320 329 337 351 29 2 349 143 191 234 170 142 146 154 162 178 168 166 176 178 168 158 147 144 156 161 160 166 175 177 174 177 183 184 196 200 202 203 191 192 200
337 347 351 351 335 51 77 285 261 158 132 133 163 99 68 246 238 184 128 220 290 275 336 1 17 10 26 10 356 338 295 209 149 106 107 129 146 128 131 142 137 124 146 159 165 164 168 171 173 176 174 173 176 182 185 192 201 200 199 192 183 191 197
314 290 304 273 295 274 283 231 298 12 65 52 54 18 44 188 288 56 199 250 260 295 354 359 360 10 358 354 342 357 339 323 7 51 58 67 106 144 144 135 140 163 177 168 158 173 178 179 179 177 174 176 181 184 193 196 200 198 198 182 187 185 187
188 212 219 254 136 340 316 304 319 329 78 77 103 113 97 236 292 321 239 215 314 332 352 353 343 357 346 321 340 346 342 348 349 21 67 70 88 128 162 173 175 159 161 184 182 180 185 185 185 180 174 177 181 188 196 202 204 200 190 181 181 177 178
209 198 225 261 286 257 270 316 305 343 49 72 60 36 290 247 24 304 222 300 333 322 342 350 340 338 330 327 325 338 341 350 352 332 348 90 72 62 77 156 177 186 192 187 184 186 186 192 188 183 180 180 183 186 193 195 186 167 141 159 170 177 175
265 274 277 303 314 234 236 288 342 344 11 93 101 239 309 318 180 239 303 350 1 323 352 339 325 329 321 298 301 295 290 356 8 2 343 22 28 13 337 256 239 221 203 197 192 190 192 184 183 169 160 159 151 153 156 169 168 171 156 159 168 174 182
322 303 343 315 281 283 33 32 11 353 340 91 87 40 322 274 240 254 273 240 253 359 355 338 327 327 313 294 288 341 39 20 22 10 328 354 347 3 5 356 348 337 321 313 287 215 187 186 176 168 164 162 166 167 170 170 173 171 159 175 176 182 189
306 296 340 344 357 285 109 27 30 11 357 92 75 93 300 333 261 335 324 354 339 57 347 329 326 328 333 329 353 31 31 35 25 12 325 327 346 7 8 4 353 355 3 25 50 48 38 163 180 169 163 159 158 162 169 174 179 176 175 179 181 178 186
310 313 7 349 331 351 89 45 22 6 0 27 43 50 338 307 310 321 334 21 346 322 335 323 330 357 356 327 334 26 19 13 26 348 344 358 349 348 357 358 6 15 26 25 45 85 115 127 141 154 154 151 153 163 160 164 156 144 155 162 175 186 167
266 265 6 341 349 21 343 13 360 357 341 8 83 84 356 356 322 326 13 345 324 315 325 336 346 356 339 336 342 353 358 357 27 31 354 331 323 324 331 349 25 33 48 49 48 77 97 116 123 124 136 138 145 145 146 130 126 147 154 152 147 132 117
252 309 338 343 48 322 249 191 114 340 30 329 48 66 18 9 7 348 337 314 315 323 334 350 338 335 320 311 305 344 29 49 43 27 10 310 289 280 279 307 315 16 74 74 70 78 91 91 93 92 90 110 110 113 120 119 123 118 121 116 128 131 119
289 318 353 18 247 238 227 81 351 332 69 37 65 70 42 13 2 349 340 337 334 330 319 320 311 305 305 302 189 69 39 48 51 39 3 322 275 231 223 250 273 102 110 113 112 110 113 118 117 111 108 122 124 121 132 133 121 123 122 125 130 117 127
39 33 34 67 240 240 25 78 34 5 4 12 16 46 69 12 352 344 332 336 330 326 330 331 334 312 274 244 196 95 78 55 35 17 346 313 282 251 199 194 214 188 164 150 146 147 153 147 143 137 140 141 132 126 123 121 123 127 132 138 142 145 147
195 190 178 238 300 331 12 14 6 29 3 346 2 339 329 41 347 346 334 338 336 331 332 328 329 329 339 262 252 102 56 40 31 11 331 303 286 258 206 167 188 225 198 156 151 140 135 131 131 127 131 133 127 124 125 122 127 136 140 145 154 153 144
119 145 329 349 7 265 307 248 260 123 32 349 338 329 270 360 344 344 338 339 340 331 333 341 336 320 73 1 324 343 12 24 2 349 337 311 287 280 158 136 138 171 184 167 147 141 134 113 105 113 115 121 125 129 132 138 139 143 148 150 151 152 153
63 61 143 214 183 248 209 333 345 337 354 59 295 268 262 8 329 333 332 332 337 335 336 345 340 17 34 291 284 329 351 343 353 336 328 316 285 291 258 134 137 171 188 159 139 120 121 117 115 115 114 117 116 120 124 129 133 140 149 151 155 159 153
100 135 100 267 203 153 25 346 334 336 350 45 307 334 233 346 324 326 330 327 328 325 344 353 339 33 2 316 311 327 327 324 324 331 328 323 304 330 42 40 33 6 227 147 131 131 116 120 128 126 129 127 112 107 116 121 130 134 144 155 147 130 130
345 68 291 356 313 213 68 352 332 326 91 74 114 249 5 327 308 310 319 317 328 333 333 344 328 309 288 288 296 304 309 319 328 336 331 314 259 116 93 83 81 38 299 130 131 136 125 128 134 134 136 122 117 121 124 128 140 145 122 112 106 103 111
15 323 155 214 236 235 224 358 321 341 75 326 233 306 307 299 296 296 303 307 315 328 316 313 299 295 301 302 305 305 310 321 317 324 327 356 54 70 117 118 100 77 102 85 110 125 131 135 136 136 128 121 128 135 135 144 140 111 107 109 114 127 136
47 24 76 6 270 239 46 352 96 278 185 217 230 273 257 256 274 289 295 292 296 300 293 290 295 305 308 311 317 319 320 333 336 329 328 139 123 148 132 117 129 146 135 125 128 127 136 139 141 146 141 139 139 136 135 133 125 129 114 117 120 120 126
131 43 59 205 207 268 351 36 356 250 213 261 240 237 287 286 271 275 278 278 280 292 287 292 301 301 306 315 333 332 329 331 328 322 348 112 99 156 136 132 133 142 126 114 119 132 128 121 112 128 141 139 133 132 133 135 131 129 129 124 124 127 132
124 208 222 251 258 264 274 217 233 243 269 257 243 242 256 281 284 238 258 278 286 288 291 291 284 296 306 310 321 323 323 326 326 320 129 136 149 174 164 147 134 126 132 133 124 97 64 122 114 102 120 136 134 133 143 141 141 136 133 132 123 125 121
261 258 240 301 301 283 296 262 219 245 278 273 226 230 275 268 267 276 273 280 284 294 301 307 305 300 311 318 324 328 331 331 331 322 108 135 147 168 167 149 147 138 129 136 138 131 75 72 113 140 155 147 138 146 148 147 141 134 131 125 120 117 118
51 299 286 252 275 300 275 276 279 255 237 246 247 273 248 265 278 288 284 272 282 291 305 299 298 307 320 317 319 324 325 337 334 327 323 335 200 183 180 169 146 143 149 157 159 156 168 185 186 198 189 199 153 141 133 132 131 122 118 114 114 109 104
154 224 271 283 286 270 275 252 279 313 314 308 284 250 262 267 274 276 283 293 292 300 302 301 305 304 312 317 320 323 327 333 339 335 346 344 346 344 324 237 171 152 154 154 158 163 179 190 195 204 192 143 150 127 117 120 119 110 104 105 104 98 94
278 293 298 300 322 340 281 279 281 274 271 294 305 306 300 293 292 295 294 274 278 292 288 297 301 304 309 314 310 311 321 336 2 356 338 325 313 329 310 289 239 180 155 145 148 161 182 195 1 358 135 165 151 117 113 112 111 101 96 92 90 85 85
327 238 276 351 5 303 297 305 300 304 307 308 298 301 306 311 308 305 304 303 290 274 278 287 294 301 303 306 303 309 310 308 265 72 6 344 352 22 31 4 335 325 49 111 131 154 168 103 57 360 252 176 124 112 112 109 101 87 78 73 73 69 70
250 254 255 230 220 262 261 270 287 294 295 300 299 298 304 305 294 289 296 301 309 312 297 277 282 289 296 303 306 304 311 286 243 90 68 49 33 55 89 72 16 350 344 41 56 64 54 60 57 31 283 227 109 98 97 92 85 76 67 67 70 60 56
261 266 263 244 191 250 283 285 288 289 288 288 284 288 291 285 283 290 294 284 288 297 300 296 280 280 291 301 309 309 318 281 238 98 91 77 127 126 75 114 122 93 347 16 39 34 26 32 55 38 303 284 118 114 110 107 103 97 88 77 40 23 69
247 253 275 274 260 268 270 274 277 278 281 274 281 292 292 293 291 291 293 294 283 279 291 301 302 299 296 302 308 306 294 222 220 139 111 98 119 128 134 114 107 110 84 45 35 48 58 59 57 31 305 306 44 115 121 122 119 119 123 116 103 38 81